This is the latest recevied weather packets stored in our database for station/object SA3PJN-WX. If no packets are shown the sender has not sent any weather packets the latest 10 day(s).
| Time | Temp. | Humidity | Pressure | Rain* | Wind** | Luminosity | Snow |
|---|---|---|---|---|---|---|---|
| 1777675171 | 8.89° C | 63% | 966.8 hPa | - | - | - | - |
| 1777674870 | 8.89° C | 63% | 967 hPa | - | - | - | - |
| 1777674571 | 8.89° C | 63% | 966.9 hPa | - | - | - | - |
| 1777674271 | 8.89° C | 62% | 966.7 hPa | - | - | - | - |
| 1777673941 | 9.44° C | 61% | 966.9 hPa | - | - | - | - |
| 1777673640 | 10° C | 60% | 966.8 hPa | - | - | - | - |
| 1777673310 | 10° C | 57% | 966.9 hPa | - | - | - | - |
| 1777673010 | 10.56° C | 55% | 966.8 hPa | - | - | - | - |
| 1777672710 | 10.56° C | 53% | 966.9 hPa | - | - | - | - |
| 1777672380 | 10.56° C | 50% | 966.9 hPa | - | - | - | - |
| 1777672050 | 10.56° C | 50% | 966.9 hPa | - | - | - | - |
| 1777671720 | 11.11° C | 49% | 966.9 hPa | - | - | - | - |
| 1777671420 | 11.11° C | 48% | 966.8 hPa | - | - | - | - |
| 1777671090 | 11.67° C | 47% | 966.7 hPa | - | - | - | - |
| 1777670790 | 11.11° C | 47% | 966.8 hPa | - | - | - | - |
| 1777670460 | 11.11° C | 47% | 966.9 hPa | - | - | - | - |
| 1777670160 | 11.67° C | 47% | 967.1 hPa | - | - | - | - |
| 1777669860 | 11.67° C | 46% | 967.2 hPa | - | - | - | - |
| 1777669560 | 11.67° C | 45% | 967.1 hPa | - | - | - | - |
| 1777669230 | 12.22° C | 45% | 967.3 hPa | - | - | - | - |
| 1777668930 | 12.22° C | 45% | 967.3 hPa | - | - | - | - |
| 1777668630 | 11.67° C | 45% | 967.3 hPa | - | - | - | - |
| 1777668300 | 11.67° C | 46% | 967.3 hPa | - | - | - | - |
| 1777668000 | 11.67° C | 46% | 967.3 hPa | - | - | - | - |
| 1777667700 | 12.22° C | 45% | 967.3 hPa | - | - | - | - |
* Rain since midnight (hover to see other rain measurements)
** Current wind speed in m/s (hover to see current wind gust speed)